Regional Weather Roundup
Issued by NWS Northern Indiana

Home | Current Version | Previous Version | Graphics & Text | Print | Product List | Glossary On
Versions: 1 2 3 4 5 6 7 8 9 10 11 12 13 14 15 16 17 18 19 20 21 22 23 24 25 26 27 28 29 30 31 32 33 34 35 36 37 38 39 40 41 42 43 44 45 46 47 48 49 50
000
ASUS43 KIWX 251100
RWRIWX

KIWX WEATHER ROUNDUP
NATIONAL WEATHER SERVICE NORTHERN INDIANA
700 AM EDT FRI JUL 25 2014

NOTE: "FAIR" INDICATES FEW OR NO CLOUDS BELOW 12,000 FEET WITH NO
SIGNIFICANT WEATHER AND/OR OBSTRUCTIONS TO VISIBILITY.

* THESE STATIONS ARE NOT UNDER NWS QUALITY CONTROL. THEY ALSO MAY NOT
  REPORT WEATHER SUCH AS PRECIPITATION OR FOG.

INZ001>027-251200-
NORTHERN INDIANA

CITY           SKY/WX    TMP DP  RH WIND       PRES   REMARKS
GARY*          PTCLDY    57  52  82 SE6       30.05F
VALPARAISO     CLEAR     48  46  93 E3        30.06F
SOUTH BEND     CLEAR     54  48  80 S3        30.06F
ELKHART*       CLEAR     54  52  94 CALM      30.08
GOSHEN         CLEAR     53  51  93 CALM      30.09R
ANGOLA*        MOCLDY    52  52 100 CALM      30.09R VSB 1/4
FORT WAYNE     PTCLDY    54  50  86 S3        30.10S

$$
INZ028>050-251200-
CENTRAL INDIANA

CITY           SKY/WX    TMP DP  RH WIND       PRES   REMARKS
LAFAYETTE      CLEAR     52  52 100 E3        30.08F
KOKOMO*        CLEAR     50  48  93 SW3       30.12R
MUNCIE*        CLEAR     51  48  89 CALM      30.12R
INDIANAPOLIS   PTCLDY    57  52  83 CALM      30.11R

$$
MIZ043>046-050>051-056>058-064>065-071>073-077>080-251200-
SOUTHWEST LOWER MICHIGAN

CITY           SKY/WX    TMP DP  RH WIND       PRES   REMARKS
BATTLE CREEK   PTCLDY    54  50  86 CALM      30.07F
BENTON HARBOR  CLEAR     49  48  97 CALM      30.06F
COLDWATER*     PTCLDY    53  52  96 CALM      30.08S
HILLSDALE*     PTCLDY    56  53  91 SW3       30.08F
HOLLAND        PTCLDY    53  49  86 CALM      30.07R
GRAND RAPIDS   PTCLDY    54  50  86 CALM      30.06S
KALAMAZOO      CLEAR     53  50  89 S3        30.07S
STURGIS*       CLEAR     52  52 100 CALM      30.08R
THREE RIVERS*  FAIR      53  53  99 CALM      30.08S

$$
OHZ001>008-015>018-024>025-251200-
NORTHWEST OHIO

CITY           SKY/WX    TMP DP  RH WIND       PRES   REMARKS
DEFIANCE       PTCLDY    51  49  92 CALM      30.10F
FINDLAY        CLEAR     51  48  89 CALM      30.10R
TOLEDO EXPRESS CLEAR     50  49  96 CALM      30.09S
TOLEDO METCALF CLEAR     53  49  86 S5        30.10S
LIMA           CLEAR     54  50  86 CALM      30.12R

$$
&&



USA.gov is the U.S. government's official web portal to all federal, state and local government web resources and services.